Budapest Ferihegy, Hungary

5:01 PM CEST on September 30, 2016 (GMT +0200)
Ferihegy

Weather History for LHBP - November, 2011

Change the Weather History Date:

Saturday, November 19, 2011

  Actual Average Record
Temperature  
Mean Temperature 35 °F -  
Max Temperature 37 °F 44 °F 60 °F (2002)
Min Temperature 33 °F 32 °F 23 °F (1997)
Degree Days  
Heating Degree Days 30    
Moisture  
Dew Point 29 °F    
Average Humidity 79    
Maximum Humidity 81    
Minimum Humidity 75    
Precipitation  
Precipitation 0.00 in - - ()
Sea Level Pressure  
Sea Level Pressure 30.31 in    
Wind  
Wind Speed 4 mph ()    
Max Wind Speed 7 mph    
Max Gust Speed -    
Visibility 2.9 miles    
Events      
Averages and records for this station are not official NWS values.
T = Trace of Precipitation, MM = Missing Value Source: Averaged Metar Reports

Daily Weather History Graph

Daily Weather History Graph

Search for Another Location

Airport or City:

Trip Planner

Search our weather history database for the weather conditions in past years. The results will help you decide how hot, cold, wet, or windy it might be!

Date:

Astronomy

Nov. 19, 2011 Rise Set
Actual Time 6:52 AM CET 4:03 PM CET
Civil Twilight 6:18 AM CET 4:37 PM CET
Nautical Twilight 5:41 AM CET 5:14 PM CET
Astronomical Twilight 5:04 AM CET 5:51 PM CET
Moon No Moon Rise 12:35 PM CET (11/19)
Length of Visible Light 10h 18m
Length of Day
9h 10m
Last Quarter, 41% of the Moon is Illuminated
Nov 19
Last Quarter
Nov 25
New
Dec 2
First Quarter
Dec 10
Full
Dec 18
Last Quarter

Hourly Weather History & Observations

Time (CET) Temp. Windchill Dew Point Humidity Pressure Visibility Wind Dir Wind Speed Gust Speed Precip Events Conditions
12:00 AM 35.6 °F 30.7 °F 28.4 °F 75% 30.30 in 3.7 mi NNW 5.8 mph - N/A   Overcast
12:30 AM 35.6 °F 30.7 °F 28.4 °F 75% 30.30 in 3.7 mi NW 5.8 mph - N/A   Overcast
1:00 AM 35.6 °F 31.7 °F 28.4 °F 75% 30.30 in 3.7 mi North 4.6 mph - N/A   Overcast
1:30 AM 33.8 °F 28.6 °F 28.4 °F 81% 30.30 in 3.7 mi North 5.8 mph - N/A   Overcast
2:00 AM 33.8 °F 27.7 °F 28.4 °F 81% 30.30 in 3.7 mi North 6.9 mph - N/A   Overcast
2:30 AM 33.8 °F 29.6 °F 28.4 °F 81% 30.30 in 3.7 mi North 4.6 mph - N/A   Overcast
3:00 AM 33.8 °F 29.6 °F 28.4 °F 81% 30.30 in 3.7 mi NNW 4.6 mph - N/A   Overcast
3:30 AM 33.8 °F 29.6 °F 28.4 °F 81% 30.30 in 3.7 mi NNW 4.6 mph - N/A   Overcast
4:00 AM 33.8 °F 29.6 °F 28.4 °F 81% 30.30 in 3.7 mi NNW 4.6 mph - N/A   Overcast
4:30 AM 33.8 °F 29.6 °F 28.4 °F 81% 30.30 in 3.7 mi North 4.6 mph - N/A   Overcast
5:00 AM 33.8 °F 28.6 °F 28.4 °F 81% 30.30 in 3.7 mi North 5.8 mph - N/A   Overcast
5:30 AM 33.8 °F 29.6 °F 26.6 °F 75% 30.30 in 3.7 mi North 4.6 mph - N/A   Overcast
6:00 AM 33.8 °F 30.8 °F 28.4 °F 81% 30.30 in 3.7 mi Variable 3.5 mph - N/A   Overcast
6:30 AM 33.8 °F - 28.4 °F 81% 30.30 in 3.7 mi Variable 1.2 mph - N/A   Overcast
7:00 AM 33.8 °F - 28.4 °F 81% 30.30 in 3.7 mi Variable 2.3 mph - N/A   Overcast
7:30 AM 33.8 °F - 28.4 °F 81% 30.30 in 3.7 mi Variable 1.2 mph - N/A   Overcast
8:00 AM 33.8 °F - 28.4 °F 81% 30.33 in 3.7 mi Variable 2.3 mph - N/A   Overcast
8:30 AM 33.8 °F - 28.4 °F 81% 30.33 in 3.1 mi Variable 2.3 mph - N/A   Overcast
9:00 AM 33.8 °F 30.8 °F 28.4 °F 81% 30.33 in 2.5 mi Variable 3.5 mph - N/A   Overcast
9:30 AM 35.6 °F 31.7 °F 28.4 °F 75% 30.33 in 2.5 mi SSW 4.6 mph - N/A   Overcast
10:00 AM 35.6 °F 32.8 °F 28.4 °F 75% 30.33 in 2.5 mi Variable 3.5 mph - N/A   Overcast
10:30 AM 35.6 °F 32.8 °F 28.4 °F 75% 30.33 in 2.5 mi Variable 3.5 mph - N/A   Mostly Cloudy
11:00 AM 35.6 °F 31.7 °F 28.4 °F 75% 30.33 in 2.8 mi SW 4.6 mph - N/A   Mostly Cloudy
11:30 AM 35.6 °F 31.7 °F 28.4 °F 75% 30.33 in 2.8 mi SW 4.6 mph - N/A   Overcast
12:00 PM 35.6 °F 31.7 °F 28.4 °F 75% 30.33 in 2.8 mi SSW 4.6 mph - N/A   Overcast
12:30 PM 35.6 °F 31.7 °F 30.2 °F 81% 30.33 in 2.5 mi SW 4.6 mph - N/A   Overcast
1:00 PM 35.6 °F 32.8 °F 30.2 °F 81% 30.30 in 2.5 mi Variable 3.5 mph - N/A   Overcast
1:30 PM 35.6 °F 32.8 °F 30.2 °F 81% 30.30 in - Variable 3.5 mph - N/A   Overcast
2:00 PM 37.4 °F - 30.2 °F 75% 30.30 in - Variable 2.3 mph - N/A   Overcast
2:30 PM 37.4 °F - 30.2 °F 75% 30.30 in - Variable 2.3 mph - N/A   Overcast
3:00 PM 37.4 °F - 30.2 °F 75% 30.30 in - Variable 2.3 mph - N/A   Overcast
3:30 PM 35.6 °F - 30.2 °F 81% 30.30 in - Variable 2.3 mph - N/A   Overcast
4:00 PM 35.6 °F 32.8 °F 30.2 °F 81% 30.30 in 1.9 mi Variable 3.5 mph - N/A   Overcast
4:30 PM 35.6 °F 32.8 °F 30.2 °F 81% 30.30 in 1.9 mi Variable 3.5 mph - N/A   Overcast
5:00 PM 35.6 °F 32.8 °F 30.2 °F 81% 30.30 in 1.9 mi Variable 3.5 mph - N/A   Overcast
5:30 PM 35.6 °F 32.8 °F 30.2 °F 81% 30.30 in 1.9 mi Variable 3.5 mph - N/A   Overcast
6:00 PM 35.6 °F - 30.2 °F 81% 30.30 in 1.9 mi Variable 2.3 mph - N/A   Overcast
6:30 PM 35.6 °F 32.8 °F 30.2 °F 81% 30.30 in 1.7 mi Variable 3.5 mph - N/A   Overcast
7:00 PM 35.6 °F - 30.2 °F 81% 30.30 in 2.2 mi Variable 2.3 mph - N/A   Overcast
7:30 PM 35.6 °F 32.8 °F 30.2 °F 81% 30.33 in 2.2 mi Variable 3.5 mph - N/A   Overcast
8:00 PM 35.6 °F - 30.2 °F 81% 30.33 in 2.2 mi Variable 2.3 mph - N/A   Overcast
8:30 PM 35.6 °F 32.8 °F 30.2 °F 81% 30.33 in 2.2 mi Variable 3.5 mph - N/A   Overcast
9:00 PM 35.6 °F 32.8 °F 30.2 °F 81% 30.33 in 2.2 mi Variable 3.5 mph - N/A   Overcast
9:30 PM 35.6 °F - 30.2 °F 81% 30.33 in 2.2 mi Variable 1.2 mph - N/A   Overcast
10:00 PM 35.6 °F - 30.2 °F 81% 30.33 in 2.2 mi Calm Calm - N/A   Overcast
10:30 PM 35.6 °F 32.8 °F 30.2 °F 81% 30.33 in 2.5 mi Variable 3.5 mph - N/A   Overcast
11:00 PM 35.6 °F 32.8 °F 30.2 °F 81% 30.33 in 2.5 mi Variable 3.5 mph - N/A   Overcast
11:30 PM 35.6 °F 30.7 °F 28.4 °F 75% 30.33 in 2.8 mi ENE 5.8 mph - N/A   Overcast